Regional Weather Roundup
Issued by NWS

Home | Current Version | Previous Version | Text Only | Print | Product List | Glossary On
Versions: 1 2 3 4 5 6 7 8 9 10 11 12 13 14 15 16 17 18 19 20 21 22 23 24 25 26 27 28 29 30 31 32 33 34 35 36 37 38 39 40 41 42 43 44 45 46 47 48 49 50
910
ASUS43 KOAX 282102
RWRNE

WEATHER ROUNDUP FOR NEBRASKA
NATIONAL WEATHER SERVICE OMAHA NE
400 PM CDT SUN AUG 28 2016

NOTES: SATELLITE DATA IS BEING USED TO AUGMENT CLOUD COVER ABOVE
       12000 FEET.
       "FAIR" INDICATES FEW OR NO CLOUDS BELOW 12,000 FEET WITH NO
       SIGNIFICANT WEATHER AND/OR OBSTRUCTIONS TO VISIBILITY.

  * THESE STATIONS DO NOT REPORT WEATHER SUCH AS RAIN...SNOW OR FOG.

NEZ001>004-019>022-054>056-282200-
NEBRASKA PANHANDLE

CITY           SKY/WX    TMP DP  RH WIND       PRES   REMARKS
SCOTTSBLUFF    PTSUNNY   88  35  15 CALM      30.06F
ALLIANCE       MOSUNNY   89  50  26 S13       30.06F
CHADRON        SUNNY     94  30  10 S6        29.98F
KIMBALL        CLOUDY    81  46  30 S5        30.14F
SIDNEY         CLOUDY    87  50  27 SE15      30.11S
$$

NEZ057>060-069>072-079>082-282200-
SOUTHWEST NEBRASKA

CITY           SKY/WX    TMP DP  RH WIND       PRES   REMARKS
NORTH PLATTE   SUNNY     90  55  30 S13G26    30.05S
IMPERIAL       SUNNY     86  52  30 S18G24    30.07F
LEXINGTON      CLOUDY    82  62  50 SE12      30.07S
MCCOOK         CLOUDY    81  61  50 S8        30.08F
OGALLALA       SUNNY     89  48  24 S10       30.05F
$$

NEZ005>010-023>029-035>040-094-282200-
NORTH CENTRAL NEBRASKA

CITY           SKY/WX    TMP DP  RH WIND       PRES   REMARKS
AINSWORTH      SUNNY     90  59  35 S16       30.01F
BROKEN BOW     SUNNY     87  62  43 S17G24    30.05F
O`NEILL        SUNNY     93  54  26 S15G24    30.02F HX  91
ORD            MOSUNNY   88  60  38 S15G23    30.03F
THEDFORD       MOSUNNY   92  58  31 S13G21    30.04F HX  91
$$

NEZ041-046>049-061>064-073>077-083>087-282200-
SOUTH CENTRAL NEBRASKA

CITY           SKY/WX    TMP DP  RH WIND       PRES   REMARKS
GRAND ISLAND   CLOUDY    89  68  49 SE14      30.05F HX  93
AURORA         MOSUNNY   88  66  48 S12G18    30.05F HX  90
HASTINGS       SUNNY     89  65  44 S10       30.06F HX  91
HEBRON         MOSUNNY   87  69  55 S9G20     30.04F HX  90
HOLDREGE       MOSUNNY   82  63  52 S10       30.07F
KEARNEY *      MOSUNNY   84  63  48 S9        30.05S
YORK           MOSUNNY   90  68  48 S13       30.05F HX  93
$$

NEZ011>018-030>034-042>045-282200-
NORTHEAST NEBRASKA

CITY           SKY/WX    TMP DP  RH WIND       PRES   REMARKS
NORFOLK        PTSUNNY   86  68  54 S14       30.04F
ALBION         CLOUDY    86  63  45 S10G18    30.05F
BLAIR          CLOUDY    86  71  61 S8        30.06S HX  92
FREMONT        MOSUNNY   88  69  52 S13       30.05F HX  92
TEKAMAH        PTSUNNY   88  73  61 SE7       30.04F HX  95
WAYNE          MOSUNNY   86  74  67 S12       30.05F HX  94
$$

NEZ050>053-065>068-078-088>093-282200-
SOUTHEAST NEBRASKA

CITY           SKY/WX    TMP DP  RH WIND       PRES   REMARKS
LINCOLN        MOSUNNY   88  66  48 SE12      30.06F HX  90
OMAHA EPPLEY   CLOUDY    89  71  55 S16       30.04F HX  95
BEATRICE       MOSUNNY   89  70  53 S12       30.05F HX  93
FALLS CITY     TSTM      73  69  87 SE9       30.08F
NEBRASKA CITY  TSTM      67  67 100 NE16G54   30.13R VSB 1/2
PLATTSMOUTH    LGT RAIN  76  65  68 S9        30.08R
$$

NEZ044-045-051>053-067-282200-
OMAHA AREA

CITY           SKY/WX    TMP DP  RH WIND       PRES   REMARKS
OMAHA EPPLEY   CLOUDY    89  71  55 S16       30.04F HX  95
BLAIR          CLOUDY    86  71  61 S8        30.06S HX  92
FREMONT        MOSUNNY   88  69  52 S13       30.05F HX  92
MILLARD        CLOUDY   N/A N/A N/A S10       30.05S
OFFUTT AFB     CLOUDY    85  75  72 S15       30.06S HX  94
PLATTSMOUTH    LGT RAIN  76  65  68 S9        30.08R
WAHOO          FAIR      85  71  63 S16       30.06S
$$




USA.gov is the U.S. government's official web portal to all federal, state and local government web resources and services.